User: anonymous   Login
Location: Unspecified
(0.0000°N, 0.0000°E)
Time: 02:23:56
(UTC+00:00)
Language:

WGS F1 (USA 195) - Orbit

View from above orbital plane
View from above orbital plane
View from above satellite
View from above satellite

Ground track
Ground track

The orbit data is extracted from the following two-line orbital elements,

1 32258U 07046A   19082.80930625  .00000017  00000-0  00000+0 0  9997
2 32258   0.0138 169.9599 0000352 233.8921  74.4609  1.00272322 41824
Epoch (UTC): 23 March 2019 19:25:24
Eccentricity: 0.0000352
inclination: 0.0138°
perigee height: 35784 km
apogee height: 35787 km
right ascension of ascending node: 169.9599°
argument of perigee: 233.8921°
revolutions per day: 1.00272322
mean anomaly at epoch: 74.4609°
orbit number at epoch: 4182

The dashed part of the orbit path shows where the satellite is in the earth's shadow,  

DLR